| time (UTC) | temp F | wind direction | speed MPH | gust MPH | rain 1hr in | rain 24hr in | rain mn in | humidity % | barometer mb |
| 20260507003004 | 64 | 262 | 12.0 | 20.0 | 0.00 | 0.00 | 0.00 | 80 | 1015.4 |
| 20260507001507 | 64 | 240 | 12.0 | 18.0 | 0.00 | 0.00 | 0.00 | 79 | 1015.3 |
| 20260507000002 | 64 | 263 | 9.0 | 20.0 | 0.00 | 0.00 | 0.00 | 79 | 1015.2 |
| 20260506234603 | 64 | 244 | 13.0 | 19.0 | 0.00 | 0.00 | 0.00 | 79 | 1015.3 |
| 20260506233101 | 64 | 264 | 12.0 | 19.0 | 0.00 | 0.00 | 0.00 | 77 | 1015.3 |
| 20260506231605 | 64 | 246 | 13.0 | 19.0 | 0.00 | 0.00 | 0.00 | 77 | 1015.5 |
| 20260506230104 | 64 | 238 | 11.0 | 18.0 | 0.00 | 0.00 | 0.00 | 77 | 1015.7 |
| 20260506224550 | 64 | 247 | 12.0 | 17.0 | 0.00 | 0.00 | 0.00 | 76 | 1015.9 |
| 20260506223048 | 64 | 225 | 10.0 | 17.0 | 0.00 | 0.00 | 0.00 | 76 | 1016.1 |
| 20260506221603 | 65 | 265 | 7.0 | 13.0 | 0.00 | 0.00 | 0.00 | 75 | 1016.4 |
| 20260506220043 | 65 | 250 | 6.0 | 14.0 | 0.00 | 0.00 | 0.00 | 77 | 1016.6 |
| 20260506214541 | 65 | 243 | 10.0 | 13.0 | 0.00 | 0.00 | 0.00 | 74 | 1016.7 |
| 20260506213038 | 65 | 248 | 9.0 | 13.0 | 0.00 | 0.00 | 0.00 | 74 | 1016.9 |
| 20260506211635 | 65 | 188 | 6.0 | 10.0 | 0.00 | 0.00 | 0.00 | 74 | 1017.1 |
| 20260506210048 | 65 | 223 | 6.0 | 10.0 | 0.00 | 0.00 | 0.00 | 69 | 1017.3 |
| 20260506204533 | 66 | 205 | 4.0 | 7.0 | 0.00 | 0.00 | 0.00 | 63 | 1017.4 |
| 20260506203036 | 65 | 190 | 7.0 | 9.0 | 0.00 | 0.00 | 0.00 | 75 | 1017.5 |
| 20260506201530 | 65 | 144 | 5.0 | 8.0 | 0.00 | 0.00 | 0.00 | 76 | 1017.7 |
| 20260506200032 | 65 | 175 | 6.0 | 8.0 | 0.00 | 0.00 | 0.00 | 75 | 1017.8 |
| 20260506194529 | 66 | 155 | 4.0 | 9.0 | 0.00 | 0.00 | 0.00 | 75 | 1018.0 |
| 20260506193126 | 65 | 150 | 5.0 | 8.0 | 0.00 | 0.00 | 0.00 | 78 | 1018.1 |
| 20260506191527 | 64 | 148 | 6.0 | 9.0 | 0.00 | 0.00 | 0.00 | 80 | 1018.3 |
| 20260506190029 | 64 | 132 | 7.0 | 10.0 | 0.00 | 0.00 | 0.00 | 77 | 1018.3 |
| 20260506184534 | 65 | 121 | 3.0 | 8.0 | 0.00 | 0.00 | 0.00 | 77 | 1018.5 |
| 20260506183023 | 65 | 125 | 4.0 | 9.0 | 0.00 | 0.00 | 0.00 | 76 | 1018.5 |
| 20260506181534 | 64 | 129 | 4.0 | 8.0 | 0.00 | 0.00 | 0.00 | 78 | 1018.6 |
| 20260506180020 | 64 | 101 | 4.0 | 8.0 | 0.00 | 0.00 | 0.00 | 77 | 1018.6 |
| 20260506174519 | 64 | 98 | 3.0 | 7.0 | 0.00 | 0.00 | 0.00 | 76 | 1018.6 |
| 20260506173019 | 64 | 102 | 4.0 | 7.0 | 0.00 | 0.00 | 0.00 | 74 | 1018.5 |
| 20260506171518 | 63 | 63 | 4.0 | 6.0 | 0.00 | 0.00 | 0.00 | 76 | 1018.5 |
| 20260506170025 | 64 | 90 | 4.0 | 5.0 | 0.00 | 0.00 | 0.00 | 74 | 1018.5 |
| 20260506164537 | 64 | 88 | 2.0 | 6.0 | 0.00 | 0.00 | 0.00 | 74 | 1018.5 |
| 20260506163014 | 65 | 126 | 1.0 | 3.0 | 0.00 | 0.00 | 0.00 | 73 | 1018.4 |
| 20260506161511 | 64 | 104 | 1.0 | 6.0 | 0.00 | 0.00 | 0.00 | 74 | 1018.3 |
| 20260506160009 | 64 | 114 | 2.0 | 6.0 | 0.00 | 0.00 | 0.00 | 74 | 1018.4 |
| 20260506154507 | 62 | 71 | 3.0 | 5.0 | 0.00 | 0.00 | 0.00 | 76 | 1018.4 |
| 20260506153005 | 62 | 90 | 3.0 | 5.0 | 0.00 | 0.00 | 0.00 | 77 | 1018.4 |
| 20260506151605 | 62 | 78 | 2.0 | 5.0 | 0.00 | 0.00 | 0.00 | 79 | 1018.4 |
| 20260506150108 | 61 | 58 | 3.0 | 5.0 | 0.00 | 0.00 | 0.00 | 78 | 1018.4 |
| 20260506144556 | 61 | 57 | 2.0 | 5.0 | 0.00 | 0.00 | 0.00 | 79 | 1018.4 |
| 20260506143054 | 61 | 92 | 2.0 | 4.0 | 0.00 | 0.00 | 0.00 | 81 | 1018.3 |
| 20260506141551 | 61 | 63 | 2.0 | 3.0 | 0.00 | 0.00 | 0.00 | 82 | 1018.2 |
| 20260506140049 | 60 | 26 | 0.0 | 3.0 | 0.00 | 0.00 | 0.00 | 84 | 1018.1 |
| 20260506134551 | 58 | 294 | 0.0 | 0.0 | 0.00 | 0.00 | 0.00 | 87 | 1018.0 |
| 20260506133101 | 57 | 286 | 0.0 | 0.0 | 0.00 | 0.00 | 0.00 | 88 | 1017.9 |
| 20260506131545 | 56 | 272 | 0.0 | 0.0 | 0.00 | 0.00 | 0.00 | 89 | 1017.7 |
| 20260506130043 | 56 | 272 | 0.0 | 0.0 | 0.00 | 0.00 | 0.00 | 89 | 1017.5 |
| 20260506124542 | 56 | 272 | 0.0 | 0.0 | 0.00 | 0.00 | 0.00 | 89 | 1017.4 |
| 20260506123041 | 56 | 272 | 0.0 | 0.0 | 0.00 | 0.00 | 0.00 | 89 | 1017.3 |
| 20260506121540 | 56 | 272 | 0.0 | 0.0 | 0.00 | 0.00 | 0.00 | 89 | 1017.3 |
| 20260506120053 | 56 | 272 | 0.0 | 0.0 | 0.00 | 0.00 | 0.00 | 89 | 1017.2 |
| 20260506114537 | 57 | 272 | 0.0 | 0.0 | 0.00 | 0.00 | 0.00 | 89 | 1017.2 |
| 20260506113036 | 57 | 265 | 0.0 | 0.0 | 0.00 | 0.00 | 0.00 | 89 | 1017.1 |
| 20260506111539 | 57 | 214 | 0.0 | 1.0 | 0.00 | 0.00 | 0.00 | 89 | 1017.1 |
| 20260506110033 | 57 | 214 | 0.0 | 1.0 | 0.00 | 0.00 | 0.00 | 89 | 1017.1 |
| 20260506104539 | 57 | 214 | 0.0 | 0.0 | 0.00 | 0.00 | 0.00 | 87 | 1017.1 |
| 20260506103039 | 58 | 214 | 0.0 | 0.0 | 0.00 | 0.00 | 0.00 | 86 | 1017.1 |
| 20260506101528 | 58 | 214 | 0.0 | 1.0 | 0.00 | 0.00 | 0.00 | 86 | 1017.0 |
| 20260506100025 | 59 | 214 | 0.0 | 2.0 | 0.00 | 0.01 | 0.00 | 85 | 1017.1 |
| 20260506094525 | 59 | 223 | 0.0 | 2.0 | 0.00 | 0.01 | 0.00 | 84 | 1017.2 |
| 20260506093023 | 59 | 219 | 0.0 | 2.0 | 0.00 | 0.01 | 0.00 | 84 | 1017.2 |
| 20260506091522 | 59 | 246 | 2.0 | 5.0 | 0.00 | 0.01 | 0.00 | 83 | 1017.2 |
| 20260506090021 | 59 | 263 | 1.0 | 3.0 | 0.00 | 0.03 | 0.00 | 84 | 1017.3 |
| 20260506084545 | 59 | 285 | 0.0 | 2.0 | 0.00 | 0.03 | 0.00 | 84 | 1017.4 |
| 20260506083017 | 59 | 235 | 0.0 | 2.0 | 0.00 | 0.03 | 0.00 | 84 | 1017.4 |
| 20260506081518 | 59 | 289 | 0.0 | 3.0 | 0.00 | 0.03 | 0.00 | 84 | 1017.5 |
| 20260506073013 | 59 | 211 | 3.0 | 7.0 | 0.00 | 0.03 | 0.00 | 85 | 1017.4 |
| 20260506071511 | 59 | 191 | 3.0 | 7.0 | 0.00 | 0.03 | 0.00 | 85 | 1017.3 |
| 20260506061505 | 60 | 207 | 3.0 | 6.0 | 0.00 | 0.03 | 0.03 | 83 | 1017.1 |
| 20260506050103 | 60 | 234 | 1.0 | 4.0 | 0.00 | 0.03 | 0.03 | 83 | 1016.6 |
| 20260506044556 | 60 | 251 | 2.0 | 4.0 | 0.00 | 0.03 | 0.03 | 82 | 1016.4 |
| 20260506043055 | 60 | 45 | 0.0 | 3.0 | 0.00 | 0.03 | 0.03 | 83 | 1016.3 |
| 20260506041605 | 60 | 229 | 1.0 | 4.0 | 0.00 | 0.03 | 0.03 | 83 | 1016.0 |
| 20260506040051 | 60 | 226 | 0.0 | 5.0 | 0.00 | 0.03 | 0.03 | 81 | 1015.9 |
| 20260506034553 | 60 | 256 | 3.0 | 6.0 | 0.00 | 0.03 | 0.03 | 81 | 1015.7 |
| 20260506033049 | 60 | 257 | 1.0 | 6.0 | 0.00 | 0.03 | 0.03 | 79 | 1015.6 |
| 20260506031548 | 60 | 244 | 5.0 | 9.0 | 0.00 | 0.03 | 0.03 | 79 | 1015.2 |
| 20260506030046 | 61 | 250 | 5.0 | 9.0 | 0.00 | 0.03 | 0.03 | 78 | 1015.1 |
| 20260506024547 | 61 | 222 | 5.0 | 11.0 | 0.00 | 0.03 | 0.03 | 77 | 1014.7 |
| 20260506023101 | 61 | 249 | 7.0 | 13.0 | 0.00 | 0.03 | 0.03 | 76 | 1014.7 |
| 20260506021607 | 61 | 221 | 8.0 | 14.0 | 0.00 | 0.03 | 0.03 | 74 | 1014.6 |
| 20260506020041 | 62 | 240 | 9.0 | 15.0 | 0.00 | 0.03 | 0.03 | 74 | 1014.5 |
| 20260506014539 | 62 | 245 | 7.0 | 14.0 | 0.00 | 0.03 | 0.03 | 74 | 1014.2 |
| 20260506013039 | 62 | 257 | 7.0 | 13.0 | 0.00 | 0.03 | 0.03 | 73 | 1014.0 |
| 20260506011540 | 62 | 240 | 9.0 | 15.0 | 0.00 | 0.03 | 0.03 | 72 | 1014.1 |
| 20260506010038 | 63 | 207 | 8.0 | 13.0 | 0.00 | 0.03 | 0.03 | 71 | 1014.1 |
| 20260506004536 | 63 | 258 | 10.0 | 16.0 | 0.00 | 0.03 | 0.03 | 70 | 1014.1 |